Weather History for Guatemala Aeropuertola Aurora, Guatemala

Change the Weather History Date:

Friday, July 26, 2013

  Actual Average Record
Temperature  
Mean Temperature 70 °F -  
Max Temperature 78 °F 75 °F - ()
Min Temperature 62 °F 60 °F - ()
Cooling Degree Days 5    
Growing Degree Days 20 (Base 50)    
Moisture  
Dew Point 58 °F    
Average Humidity 71    
Maximum Humidity 94    
Minimum Humidity 39    
Precipitation  
Precipitation 0.00 in - - ()
Sea Level Pressure  
Sea Level Pressure 30.33 in    
Wind  
Wind Speed 13 mph ()    
Max Wind Speed 21 mph    
Max Gust Speed -    
Visibility 6.1 miles    
Events      
T = Trace of Precipitation, MM = Missing Value Source: Averaged Metar Reports

Daily Weather History Graph

Daily Weather History Graph

Search for Another Location

Airport:

Trip Planner

Search our weather history database for the weather conditions in past years. The results will help you decide how hot, cold, wet, or windy it might be!

Date:

Astronomy

Jul. 26, 2013 Rise Set
Actual Time 5:44 AM CST 6:33 PM CST
Civil Twilight 5:21 AM CST 6:55 PM CST
Nautical Twilight 4:54 AM CST 7:22 PM CST
Astronomical Twilight 4:26 AM CST 7:50 PM CST
Moon 9:45 PM CST (7/26) 9:26 AM CST (7/26)
Length of Visible Light 13h 34m
Length of Day
12h 49m
Waning Gibbous, 79% of the Moon is Illuminated
Jul 26
Waning Gibbous
Jul 29
Last Quarter
Aug 6
New
Aug 14
First Quarter
Aug 20
Full

Hourly Weather History & Observations

Time (CST) Temp. Dew Point Humidity Pressure Visibility Wind Dir Wind Speed Gust Speed Precip Events Conditions
12:00 AM 64.4 °F 60.8 °F 88% 30.36 in 6.2 mi North 13.8 mph - N/A   Mostly Cloudy
1:00 AM 64.4 °F 60.8 °F 88% 30.33 in 6.2 mi North 11.5 mph - N/A   Mostly Cloudy
2:00 AM 64.4 °F 60.8 °F 88% 30.33 in 6.2 mi North 11.5 mph - N/A   Scattered Clouds
3:00 AM 62.6 °F 60.8 °F 94% 30.33 in 6.2 mi North 9.2 mph - N/A   Mostly Cloudy
4:00 AM 62.6 °F 60.8 °F 94% 30.33 in 5.0 mi North 6.9 mph - N/A   Light Drizzle
5:00 AM 62.6 °F 60.8 °F 94% 30.30 in 6.2 mi North 16.1 mph - N/A   Mostly Cloudy
6:00 AM 63 °F 61 °F 89% 30.00 in 25 mi North 16.1 mph - -   Partly Cloudy
6:00 AM 62.6 °F 60.8 °F 94% 30.33 in 6.2 mi North 16.1 mph - N/A   Mostly Cloudy
7:00 AM 62.6 °F 60.8 °F 94% 30.36 in 6.2 mi North 16.1 mph - N/A   Scattered Clouds
8:00 AM 66.2 °F 60.8 °F 83% 30.36 in 6.2 mi NNE 20.7 mph - N/A   Scattered Clouds
9:00 AM 68.0 °F 59.0 °F 73% 30.39 in 6.2 mi NNE 16.1 mph - N/A   Scattered Clouds
10:00 AM 69.8 °F 57.2 °F 64% 30.39 in 6.2 mi NNE 18.4 mph - N/A   Partly Cloudy
11:00 AM 73.4 °F 57.2 °F 57% 30.39 in 6.2 mi NNE 13.8 mph - N/A   Partly Cloudy
12:00 PM 75.2 °F 57.2 °F 53% 30.36 in 6.2 mi NNE 16.1 mph - N/A   Partly Cloudy
1:00 PM 75.2 °F 55.4 °F 50% 30.33 in 6.2 mi NNE 11.5 mph - N/A   Partly Cloudy
2:00 PM 77.0 °F 55.4 °F 47% 30.33 in 6.2 mi North 13.8 mph - N/A   Partly Cloudy
3:00 PM 77.0 °F 51.8 °F 41% 30.30 in 6.2 mi North 13.8 mph - N/A   Partly Cloudy
4:00 PM 78.8 °F 51.8 °F 39% 30.30 in 6.2 mi North 16.1 mph - N/A   Partly Cloudy
5:00 PM 75.2 °F 51.8 °F 44% 30.30 in 6.2 mi NNE 16.1 mph - N/A   Mostly Cloudy
6:00 PM 75.2 °F 53.6 °F 47% 30.33 in 6.2 mi North 20.7 mph - N/A   Overcast
7:00 PM 71.6 °F 55.4 °F 57% 30.36 in - North 20.7 mph - N/A   Clear
8:00 PM 69.8 °F 55.4 °F 60% 30.36 in - North 13.8 mph - N/A   Clear
9:00 PM 68.0 °F 57.2 °F 68% 30.36 in - North 18.4 mph - N/A   Clear
10:00 PM 66.2 °F 59.0 °F 78% 30.39 in - North 16.1 mph - N/A   Clear
11:00 PM 66.2 °F 60.8 °F 83% 30.36 in 6.2 mi North 13.8 mph - N/A   Scattered Clouds